Home   Weather   Bad Oldesloe   Past weeks

Flag for Germany Past Weather in Bad Oldesloe, Schleswig-Holstein, Germany — Yesterday and Last 2 Weeks

Now
63 °F

Clear.


Feels Like: 63 °F
Forecast: 52 / 63 °F
Wind: 17 mph from Southwest

Location: Hamburg-Fuhlsbuettel

Current Time: Sep 29, 2016 at 7:02:03 AM

Latest Report: Sep 29, 2016 at 6:20 AM


Visibility: 10 mi

Pressure: 29.95 "Hg

Humidity: 73%

Dew Point: 54 °F

Location of Bad OldesloeLocation

Past Weather in Bad Oldesloe — Graph

°F

Bad Oldesloe Temperature Yesterday

Maximum temperature yesterday: 70 °F (at 2:20 PM)
Minimum temperature yesterday: 57 °F (at 1:20 AM)
Average temperature yesterday: 63 °F

High & Low Weather Summary for the Past Weeks

 TemperatureHumidityPressure
High84 °F (Sep 14, 2:20 PM)100% (Sep 16, 9:20 PM)30.30 "Hg (Sep 16, 9:20 PM)
Low46 °F (Sep 19, 3:20 AM)31% (Sep 14, 4:50 PM)29.89 "Hg (Sep 16, 3:50 AM)
Average62 °F76%30.10 "Hg
* Reported Sep 14 5:20 AM — Sep 29 5:50 AM, Bad Oldesloe, Weather by CustomWeather, © 2016

Note: Actual official high and low records may vary slightly from our data, if they occured in-between our weather recording intervals... More about our weather records

Advertising

Bad Oldesloe Weather History for the Previous 24 Hours

Scroll right to see more
 ConditionsComfort  
Time TempWeatherWind HumidityBarometerVisibility
5:50 AM
Thu, Sep 29
63 °FClear.15 mph73%29.95 "Hg10 mi
5:20 AM61 °FClear.14 mph77%29.95 "Hg10 mi
4:50 AM61 °FPassing clouds.13 mph77%29.98 "HgN/A
4:20 AM61 °FPassing clouds.13 mph77%29.98 "HgN/A
3:50 AM61 °FPartly cloudy.9 mph77%30.01 "HgN/A
3:20 AM63 °FPassing clouds.8 mph73%30.01 "HgN/A
2:50 AM63 °FClear.8 mph73%30.01 "Hg10 mi
2:20 AM63 °FClear.10 mph73%30.01 "Hg10 mi
1:50 AM63 °FPassing clouds.10 mph73%30.04 "HgN/A
1:20 AM63 °FPassing clouds.10 mph73%30.04 "HgN/A
12:50 AM63 °FPassing clouds.9 mph73%30.04 "HgN/A
12:20 AM63 °FPassing clouds.9 mph73%30.07 "HgN/A
11:50 PM
Wed, Sep 28
63 °FClear.9 mph73%30.07 "Hg10 mi
11:20 PM63 °FPassing clouds.10 mph73%30.07 "HgN/A
10:50 PM63 °FClear.9 mph73%30.07 "Hg10 mi
10:20 PM63 °FClear.8 mph73%30.07 "Hg10 mi
9:50 PM61 °FPassing clouds.5 mph83%30.09 "HgN/A
9:20 PM63 °FClear.6 mph77%30.09 "Hg10 mi
8:50 PM61 °FClear.6 mph83%30.09 "Hg10 mi
8:20 PM63 °FClear.8 mph77%30.07 "Hg10 mi
7:50 PM63 °FClear.9 mph77%30.07 "Hg10 mi
7:20 PM64 °FPartly cloudy.12 mph73%30.09 "HgN/A
6:50 PM64 °FBroken clouds.13 mph73%30.07 "HgN/A
6:20 PM64 °FScattered clouds.12 mph73%30.07 "HgN/A
5:50 PM66 °FPassing clouds.15 mph68%30.07 "HgN/A
5:20 PM68 °FPassing clouds.17 mph60%30.07 "HgN/A
4:50 PM68 °FPassing clouds.17 mph64%30.07 "HgN/A
4:20 PM68 °FBroken clouds.17 mph60%30.07 "HgN/A
3:50 PM70 °FBroken clouds.15 mph53%30.07 "HgN/A
3:20 PM70 °FBroken clouds.21 mph50%30.04 "HgN/A
2:50 PM70 °FPartly sunny.23 mph50%30.07 "HgN/A
2:20 PM70 °FPartly sunny.16 mph57%30.07 "HgN/A
1:50 PM68 °FPartly sunny.20 mph60%30.07 "HgN/A
1:20 PM68 °FPartly sunny.17 mph60%30.07 "HgN/A
12:50 PM68 °FPartly sunny.17 mph64%30.07 "HgN/A
12:20 PM66 °FBroken clouds.16 mph73%30.07 "HgN/A
11:50 AM64 °FPartly sunny.14 mph78%30.07 "HgN/A
11:20 AM64 °FPartly sunny.15 mph73%30.07 "HgN/A
10:50 AM64 °FPartly sunny.15 mph73%30.07 "HgN/A
10:20 AM63 °FPartly sunny.15 mph77%30.07 "HgN/A
9:50 AM63 °FPartly sunny.15 mph77%30.07 "HgN/A
9:20 AM63 °FPartly sunny.14 mph73%30.07 "HgN/A
8:50 AM61 °FPartly sunny.14 mph77%30.07 "HgN/A
8:20 AM61 °FPartly sunny.18 mph77%30.07 "HgN/A
7:50 AM61 °FPartly sunny.18 mph72%30.07 "HgN/A
7:20 AM61 °FLight rain. Partly sunny.15 mph68%30.07 "HgN/A
Weather by CustomWeather, © 2016

See weather overviewHow to use our weather pages